STARLINK-31932, 59929

Orbit data source: Space-Track

STARLINK-31932, 59929 is a payload satellite owned by SpaceX/Seattle (US) in LEO that was launched on Sat, 01 Jun 2024 UTC via an FALCON 9 launch vehicle from the Air Force Eastern Test Range (AFETR). Payload-class satellites include a variety of spacecraft equipped with specific instruments for various scientific and technological missions. These include communications satellites like Starlink; space stations such as the ISS; scientific satellites like the Hubble; Earth observation satellites from companies like Planet Labs, Umbra, and HawkEye 360; GPS; miniature CubeSats for education and research; and military/defense satellites.

Loading next visibility...
Identifier
59929, 2024-106H
Orbit
LEO
Country
Flag of USUS
Related business
Manufacturer
SpaceX/Seattle
Mission
Operational spacecraft
Bus & Motor
STARLINK V2M, Unknown motor
Mass
730 kg wet, ~700 kg dry
Launch date (UTC)
2024-06-01 (1 year ago)
Launch vehicle
FALCON 9
Launch site
Air Force Eastern Test Range (AFETR)
Object type
Payload
Rocket body
Debris
Shape & HBR
Unknown
Radar Cross Section
Large (>1 m²)

Expand to show TLE details & history
Last TLE update: 19 hours ago

TLE from 19 hours ago
0 STARLINK-31932
1 59929U 24106H   25260.97152139 -.00244284  00000-0 -91812-2 0  9998
2 59929  42.9965 224.7328 0005599 201.1548 158.9073 15.27494008 74147
Epoch: 2025-09-17T23:18Z
TLE epoch observation values (Epoch: 2025-09-17T23:18:59.448Z)
Latitude
0.00002°
Longitude
-122.15469°
Altitude
486.666 km
Speed
7.622 km/s
True Right ascension
14h 58m 55s
True Declination
0° 00' 00"
Sunlit
Object was in daylight at epoch
Visualization orbit readout
Latitude
Unknown
Longitude
Unknown
Altitude
Unknown
Speed
Unknown
Apparent Right ascension
Unknown
Apparent Declination
Unknown
Sunlit
N/A
Visualization observer readout
Local Sidereal Time
11:19:33
Azimuth
Unknown
Elevation
Unknown
Doppler factor
Unknown
Orbital elements
Apogee altitude
489.095 km
Perigee altitude
481.409 km
Semi-major axis
6,863.389 km
Eccentricity
0.00056
Inclination
42.9965°
RAAN
224.7328°
Arg. of periapsis
201.1548°
True anomaly
158.93037°
Mean anomaly
158.9073°
Eccentric anomaly
158.91884°
Mean motion
3.81711 °/min
Orbital period
94.31 mins
BSTAR
-0.0091812
Loading maneuver chart data...
Computing Atmospheric mass density...
Loading historical data...
Loading historical data...
Loading historical data...
Loading historical data...
Loading historical data...
Loading historical data...
Loading historical data...

Documentation

Showing up to 5 results
|